When you browse on this site, cookies collect data to enhance your experience and personalize the content and advertising you see.
Visit our Privacy Policy to learn more. By continuing to use the site, you agree to this use of cookies and data.
  • In Hungary
  • List of Countries
  • For 7 days
  • Water Temperature
  • Weather Map
  • News
  • Weather Widgets
  • user-avatar
    Login

    Hourly Weather Preston

    Today, 1 June, Monday

    Time Temperature Precipitation Wind Pressure Humidity
    00:00 +12°C° 0 mm 4 mps 767 mmHg 73%
    01:00 +11°C° 0 mm 3 mps 767 mmHg 76%
    02:00 +11°C° 0 mm 3 mps 767 mmHg 78%
    03:00 +10°C° 0 mm 3 mps 766 mmHg 81%
    04:00 +12°C° 0 mm 2 mps 767 mmHg 78%
    05:00 +13°C° 0 mm 2 mps 767 mmHg 76%
    06:00 +14°C° 0 mm 2 mps 767 mmHg 77%
    07:00 +14°C° 0 mm 3 mps 767 mmHg 70%
    08:00 +17°C° 0 mm 3 mps 767 mmHg 64%
    09:00 +18°C° 0 mm 3 mps 767 mmHg 58%
    10:00 +19°C° 0 mm 3 mps 767 mmHg 57%
    11:00 +20°C° 0 mm 3 mps 766 mmHg 55%
    12:00 +21°C° 0 mm 4 mps 766 mmHg 53%
    13:00 +21°C° 0 mm 4 mps 766 mmHg 53%
    14:00 +22°C° 0 mm 4 mps 766 mmHg 53%
    15:00 +22°C° 0 mm 4 mps 766 mmHg 52%
    16:00 +21°C° 0 mm 4 mps 766 mmHg 56%
    17:00 +21°C° 0 mm 4 mps 766 mmHg 60%
    18:00 +20°C° 0 mm 4 mps 766 mmHg 64%
    19:00 +19°C° 0 mm 3 mps 766 mmHg 68%
    20:00 +17°C° 0 mm 3 mps 766 mmHg 71%
    21:00 +14°C° 0 mm 3 mps 766 mmHg 75%
    22:00 +13°C° 0 mm 3 mps 766 mmHg 73%
    23:00 +12°C° 0 mm 3 mps 766 mmHg 71%

    Tomorrow, 2 June, Tuesday

    Time Temperature Precipitation Wind Pressure Humidity
    00:00 +12°C° 0 mm 2 mps 766 mmHg 69%
    01:00 +12°C° 0 mm 2 mps 766 mmHg 69%
    02:00 +10°C° 0 mm 2 mps 766 mmHg 70%
    03:00 +10°C° 0 mm 2 mps 766 mmHg 70%
    04:00 +12°C° 0 mm 2 mps 765 mmHg 70%
    05:00 +13°C° 0 mm 1 mps 765 mmHg 69%
    06:00 +13°C° 0 mm 1 mps 765 mmHg 69%
    07:00 +15°C° 0 mm 1 mps 765 mmHg 64%
    08:00 +16°C° 0 mm 1 mps 764 mmHg 59%
    09:00 +17°C° 0 mm 0 mps 764 mmHg 54%
    10:00 +20°C° 0 mm 1 mps 764 mmHg 51%
    11:00 +21°C° 0 mm 1 mps 764 mmHg 49%
    12:00 +21°C° 0 mm 2 mps 763 mmHg 46%
    13:00 +21°C° 0 mm 2 mps 763 mmHg 49%
    14:00 +21°C° 0 mm 3 mps 762 mmHg 51%
    15:00 +21°C° 0 mm 3 mps 761 mmHg 54%
    16:00 +20°C° 0 mm 3 mps 761 mmHg 58%
    17:00 +19°C° 0 mm 4 mps 760 mmHg 63%
    18:00 +18°C° 0 mm 4 mps 760 mmHg 67%
    19:00 +17°C° 0 mm 3 mps 760 mmHg 71%
    20:00 +14°C° 0 mm 3 mps 760 mmHg 75%
    21:00 +14°C° 0 mm 2 mps 759 mmHg 79%
    22:00 +14°C° 0 mm 2 mps 759 mmHg 80%
    23:00 +13°C° 0 mm 3 mps 758 mmHg 81%

    Day after tomorrow, 3 June, Wednesday

    Time Temperature Precipitation Wind Pressure Humidity
    00:00 +13°C° 0 mm 3 mps 758 mmHg 82%
    01:00 +13°C° 0 mm 3 mps 758 mmHg 83%
    02:00 +13°C° 0 mm 3 mps 757 mmHg 84%
    03:00 +14°C° 0 mm 2 mps 757 mmHg 85%
    04:00 +13°C° 0.2 mm 3 mps 757 mmHg 87%
    05:00 +12°C° 0.2 mm 4 mps 756 mmHg 89%
    06:00 +12°C° 0.2 mm 4 mps 756 mmHg 91%
    07:00 +12°C° 0.1 mm 5 mps 756 mmHg 88%
    08:00 +13°C° 0.1 mm 5 mps 756 mmHg 86%
    09:00 +13°C° 0.1 mm 6 mps 757 mmHg 83%
    10:00 +13°C° 0.1 mm 6 mps 757 mmHg 80%
    11:00 +12°C° 0.1 mm 7 mps 757 mmHg 78%
    12:00 +14°C° 0.1 mm 7 mps 757 mmHg 75%
    13:00 +14°C° 0 mm 7 mps 757 mmHg 74%
    14:00 +14°C° 0 mm 7 mps 757 mmHg 73%
    15:00 +14°C° 0 mm 6 mps 757 mmHg 72%
    16:00 +14°C° 0 mm 6 mps 757 mmHg 72%
    17:00 +13°C° 0 mm 6 mps 757 mmHg 72%
    18:00 +13°C° 0 mm 6 mps 757 mmHg 72%
    19:00 +12°C° 0 mm 5 mps 757 mmHg 75%
    20:00 +10°C° 0 mm 5 mps 757 mmHg 78%
    21:00 +10°C° 0 mm 4 mps 757 mmHg 81%
    22:00 +10°C° 0 mm 4 mps 757 mmHg 81%
    23:00 +10°C° 0 mm 3 mps 757 mmHg 81%

    4 June, Thursday

    Time Temperature Precipitation Wind Pressure Humidity
    00:00 +10°C° 0 mm 3 mps 756 mmHg 81%
    01:00 +9°C° 0 mm 3 mps 756 mmHg 83%
    02:00 +8°C° 0 mm 2 mps 756 mmHg 86%
    03:00 +7°C° 0 mm 2 mps 755 mmHg 89%
    04:00 +8°C° 0 mm 2 mps 755 mmHg 85%
    05:00 +9°C° 0 mm 1 mps 755 mmHg 80%
    06:00 +10°C° 0 mm 1 mps 754 mmHg 76%
    07:00 +11°C° 0 mm 1 mps 754 mmHg 73%
    08:00 +12°C° 0 mm 1 mps 754 mmHg 69%
    09:00 +12°C° 0 mm 2 mps 754 mmHg 66%
    10:00 +12°C° 0.1 mm 3 mps 753 mmHg 65%
    11:00 +13°C° 0.1 mm 4 mps 753 mmHg 65%
    12:00 +13°C° 0.1 mm 5 mps 752 mmHg 65%
    13:00 +13°C° 0.2 mm 5 mps 752 mmHg 66%
    14:00 +14°C° 0.2 mm 6 mps 752 mmHg 68%
    15:00 +14°C° 0.2 mm 6 mps 751 mmHg 69%
    16:00 +13°C° 0.2 mm 6 mps 751 mmHg 72%
    17:00 +13°C° 0.2 mm 6 mps 751 mmHg 75%
    18:00 +13°C° 0.2 mm 6 mps 751 mmHg 79%
    19:00 +11°C° 0.1 mm 6 mps 751 mmHg 80%
    20:00 +10°C° 0.1 mm 6 mps 751 mmHg 81%
    21:00 +10°C° 0.1 mm 5 mps 751 mmHg 83%
    22:00 +9°C° 0 mm 5 mps 751 mmHg 85%
    23:00 +9°C° 0 mm 5 mps 750 mmHg 87%

    5 June, Friday

    Time Temperature Precipitation Wind Pressure Humidity
    00:00 +8°C° 0 mm 5 mps 750 mmHg 89%
    01:00 +8°C° 0 mm 5 mps 750 mmHg 88%
    02:00 +8°C° 0 mm 5 mps 749 mmHg 88%
    03:00 +8°C° 0 mm 5 mps 749 mmHg 88%
    04:00 +9°C° 0 mm 5 mps 749 mmHg 87%
    05:00 +9°C° 0 mm 5 mps 748 mmHg 87%
    06:00 +9°C° 0 mm 5 mps 747 mmHg 87%
    07:00 +10°C° 0.3 mm 6 mps 747 mmHg 89%
    08:00 +10°C° 0.3 mm 7 mps 747 mmHg 91%
    09:00 +11°C° 0.3 mm 8 mps 746 mmHg 93%
    10:00 +12°C° 0.4 mm 9 mps 746 mmHg 87%
    11:00 +12°C° 0.4 mm 9 mps 745 mmHg 81%
    12:00 +13°C° 0.4 mm 10 mps 745 mmHg 75%
    13:00 +13°C° 0.1 mm 11 mps 745 mmHg 72%
    14:00 +13°C° 0.1 mm 11 mps 745 mmHg 69%
    15:00 +12°C° 0.1 mm 11 mps 745 mmHg 65%
    16:00 +12°C° 0.1 mm 11 mps 745 mmHg 67%
    17:00 +11°C° 0.1 mm 11 mps 746 mmHg 69%
    18:00 +11°C° 0.1 mm 10 mps 746 mmHg 71%
    19:00 +11°C° 0.1 mm 9 mps 747 mmHg 75%
    20:00 +10°C° 0.1 mm 8 mps 747 mmHg 78%
    21:00 +10°C° 0.1 mm 7 mps 748 mmHg 81%
    22:00 +9°C° 0 mm 6 mps 748 mmHg 83%
    23:00 +8°C° 0 mm 6 mps 749 mmHg 84%

    6 June, Saturday

    Time Temperature Precipitation Wind Pressure Humidity
    00:00 +7°C° 0 mm 5 mps 749 mmHg 85%
    01:00 +7°C° 0 mm 5 mps 750 mmHg 84%
    02:00 +7°C° 0 mm 4 mps 750 mmHg 84%
    03:00 +6°C° 0 mm 4 mps 751 mmHg 83%
    04:00 +7°C° 0.1 mm 5 mps 751 mmHg 82%
    05:00 +8°C° 0.1 mm 6 mps 751 mmHg 81%
    06:00 +8°C° 0.1 mm 7 mps 751 mmHg 80%
    07:00 +9°C° 0.1 mm 8 mps 752 mmHg 73%
    08:00 +9°C° 0.1 mm 8 mps 752 mmHg 66%
    09:00 +10°C° 0.1 mm 9 mps 752 mmHg 59%
    10:00 +10°C° 0.1 mm 9 mps 752 mmHg 57%
    11:00 +11°C° 0.1 mm 9 mps 752 mmHg 56%
    12:00 +11°C° 0.1 mm 10 mps 753 mmHg 55%
    13:00 +11°C° 0.1 mm 10 mps 753 mmHg 55%
    14:00 +11°C° 0.1 mm 10 mps 753 mmHg 55%
    15:00 +11°C° 0.1 mm 10 mps 753 mmHg 55%
    16:00 +9°C° 0.1 mm 10 mps 753 mmHg 57%
    17:00 +9°C° 0.1 mm 10 mps 754 mmHg 59%
    18:00 +8°C° 0.1 mm 10 mps 754 mmHg 61%
    19:00 +7°C° 0 mm 9 mps 754 mmHg 63%
    20:00 +6°C° 0 mm 8 mps 755 mmHg 65%
    21:00 +6°C° 0 mm 7 mps 755 mmHg 67%
    22:00 +5°C° 0 mm 7 mps 755 mmHg 69%
    23:00 +5°C° 0 mm 7 mps 756 mmHg 70%
    Show more